Volver al catálogo

EUTE 7B

EUTE 3D

ActivoComunicacionesGEO
NORAD 39163·PAYLOAD·🇪🇺 EU

Lanzado May 14, 2013 desde Baikonur Cosmodrome

Loading…

TLE

ActualizadoSource: Space-Track

Época: Sep 14, 2026, 13:52 UTC

1 39163U 13022A   26257.57830770  .00000096  00000-0  00000-0 0  9994
2 39163   0.0674 344.4985 0004932 119.1991 114.0513  1.00271678 48848

Sigue EUTE 7B en tiempo real con AllMySat

Download on the App Store